Altus AFB, OK

12:43 AM CDT on July 22, 2017 (GMT -0500)
Altus Air Force Base

Weather History for KLTS - October, 2010

Change the Weather History Date:

Thursday, October 28, 2010

  Actual Average Record
Temperature  
Mean Temperature 54 °F -  
Max Temperature 66 °F 67 °F 86 °F (2016)
Min Temperature 42 °F 46 °F 31 °F (2012)
Degree Days  
Heating Degree Days 11    
Growing Degree Days 4 (Base 50)    
Moisture  
Dew Point 30 °F    
Average Humidity 45    
Maximum Humidity 70    
Minimum Humidity 20    
Precipitation  
Precipitation 0.00 in - - ()
Sea Level Pressure  
Sea Level Pressure 30.49 in    
Wind  
Wind Speed 7 mph (NNW)    
Max Wind Speed 14 mph    
Max Gust Speed -    
Visibility 10 miles    
Events      
Averages and records for this station are not official NWS values.
T = Trace of Precipitation, MM = Missing Value Source: NWS Daily Summary

Daily Weather History Graph

Daily Weather History Graph

Search for Another Location

Airport or City:

Trip Planner

Search our weather history database for the weather conditions in past years. The results will help you decide how hot, cold, wet, or windy it might be!

Date:

Astronomy

Oct. 28, 2010 Rise Set
Actual Time 7:53 AM CDT 6:47 PM CDT
Civil Twilight 7:28 AM CDT 7:13 PM CDT
Nautical Twilight 6:58 AM CDT 7:42 PM CDT
Astronomical Twilight 6:29 AM CDT 8:12 PM CDT
Moon 11:26 PM CDT (10/28) 1:08 PM CDT (10/28)
Length of Visible Light 11h 45m
Length of Day
10h 53m
Waning Gibbous, 70% of the Moon is Illuminated
Oct 28
Waning Gibbous
Oct 30
Last Quarter
Nov 5
New
Nov 13
First Quarter
Nov 21
Full

Hourly Weather History & Observations

Time (CDT) Temp. Windchill Dew Point Humidity Pressure Visibility Wind Dir Wind Speed Gust Speed Precip Events Conditions
12:55 AM 53.8 °F - 28.4 °F 38% 30.35 in 10.0 mi NNE 13.8 mph - N/A   Clear
1:55 AM 46.8 °F - 31.6 °F 56% 30.37 in 10.0 mi NNE 8.1 mph - N/A   Clear
2:55 AM 48.6 °F - 29.8 °F 48% 30.39 in 10.0 mi Calm Calm - N/A   Clear
3:55 AM 50.0 °F - 29.1 °F 45% 30.41 in 10.0 mi Calm Calm - N/A   Clear
4:55 AM 44.4 °F 39.5 °F 31.6 °F 61% 30.42 in 10.0 mi NW 9.2 mph - N/A   Clear
5:55 AM 43.0 °F 38.2 °F 32.0 °F 65% 30.45 in 10.0 mi NW 8.1 mph - N/A   Clear
6:55 AM 42.8 °F 38.6 °F 31.1 °F 63% 30.49 in 10.0 mi NW 6.9 mph - N/A   Clear
7:55 AM 42.3 °F 36.8 °F 30.6 °F 63% 30.52 in 10.0 mi NW 9.2 mph - N/A   Clear
8:55 AM 45.0 °F 39.3 °F 30.7 °F 57% 30.55 in 10.0 mi NW 11.5 mph - N/A   Clear
9:55 AM 49.8 °F - 32.2 °F 51% 30.58 in 10.0 mi NW 10.4 mph - N/A   Clear
10:55 AM 56.5 °F - 32.0 °F 39% 30.60 in 10.0 mi NW 9.2 mph - N/A   Clear
11:55 AM 61.5 °F - 22.6 °F 23% 30.59 in 10.0 mi North 8.1 mph - N/A   Clear
12:55 PM 63.0 °F - 24.8 °F 23% 30.56 in 10.0 mi NW 6.9 mph - N/A   Clear
1:55 PM 64.6 °F - 25.2 °F 22% 30.54 in 10.0 mi North 5.8 mph - N/A   Clear
2:55 PM 66.2 °F - 25.2 °F 21% 30.51 in 10.0 mi North 9.2 mph - N/A   Clear
3:55 PM 66.9 °F - 24.4 °F 20% 30.49 in 10.0 mi North 6.9 mph - N/A   Clear
4:55 PM 66.7 °F - 25.2 °F 21% 30.48 in 10.0 mi Variable 3.5 mph - N/A   Clear
5:55 PM 65.3 °F - 27.1 °F 24% 30.47 in 10.0 mi Variable 4.6 mph - N/A   Clear
6:55 PM 59.0 °F - 32.5 °F 37% 30.47 in 10.0 mi East 3.5 mph - N/A   Clear
7:55 PM 53.2 °F - 35.8 °F 52% 30.48 in 10.0 mi SSE 4.6 mph - N/A   Clear
8:55 PM 49.3 °F - 36.3 °F 61% 30.49 in 10.0 mi Calm Calm - N/A   Clear
9:55 PM 47.8 °F - 35.1 °F 61% 30.49 in 10.0 mi Calm Calm - N/A   Clear
10:55 PM 45.1 °F - 36.0 °F 70% 30.48 in 10.0 mi Calm Calm - N/A   Clear
11:55 PM 46.8 °F - 33.4 °F 60% 30.48 in 10.0 mi Calm Calm - N/A   Clear